Weather History for EKCH - December, 2012

Change the Weather History Date:

Friday, December 28, 2012

  Actual Average Record
Temperature  
Mean Temperature 30 °F -  
Max Temperature 35 °F 36 °F 46 °F (2007)
Min Temperature 24 °F 28 °F 14 °F (1996)
Degree Days  
Heating Degree Days 36    
Moisture  
Dew Point 26 °F    
Average Humidity 80    
Maximum Humidity 93    
Minimum Humidity 56    
Precipitation  
Precipitation 0.02 in - - ()
Sea Level Pressure  
Sea Level Pressure 30.13 in    
Wind  
Wind Speed 8 mph ()    
Max Wind Speed 21 mph    
Max Gust Speed -    
Visibility 9.6 miles    
Events Rain , Snow    
Averages and records for this station are not official NWS values.
T = Trace of Precipitation, MM = Missing Value Source: Averaged Metar Reports

Daily Weather History Graph

Daily Weather History Graph

Search for Another Location

Airport or City:

Trip Planner

Search our weather history database for the weather conditions in past years. The results will help you decide how hot, cold, wet, or windy it might be!

Date:

Astronomy

Dec. 28, 2012 Rise Set
Actual Time 8:38 AM CET 3:43 PM CET
Civil Twilight 7:52 AM CET 4:30 PM CET
Nautical Twilight 7:03 AM CET 5:18 PM CET
Astronomical Twilight 6:18 AM CET 6:03 PM CET
Moon 4:15 PM CET (12/28) 8:11 AM CET (12/28)
Length of Visible Light 8h 38m
Length of Day
7h 05m
Full, 100% of the Moon is Illuminated
Dec 28
Full
Jan 5
Last Quarter
Jan 11
New
Jan 19
First Quarter
Jan 27
Full

Hourly Weather History & Observations

Time (CET) Temp. Windchill Dew Point Humidity Pressure Visibility Wind Dir Wind Speed Gust Speed Precip Events Conditions
12:20 AM 28.4 °F 20.4 °F 21.2 °F 74% 29.86 in 6.2 mi West 8.1 mph - N/A   Partly Cloudy
12:50 AM 28.4 °F 20.4 °F 21.2 °F 74% 29.86 in 6.2 mi West 8.1 mph - N/A   Partly Cloudy
1:00 AM 29 °F - 21 °F 62% 29.89 in 22 mi West 8.1 mph - -   Scattered Clouds
1:20 AM 26.6 °F 19.1 °F 21.2 °F 80% 29.89 in 6.2 mi West 6.9 mph - N/A   Partly Cloudy
1:50 AM 28.4 °F 21.2 °F 21.2 °F 74% 29.92 in 6.2 mi WNW 6.9 mph - N/A   Partly Cloudy
2:20 AM 28.4 °F 21.2 °F 21.2 °F 74% 29.95 in 6.2 mi West 6.9 mph - N/A   Partly Cloudy
2:50 AM 28.4 °F 21.2 °F 21.2 °F 74% 29.95 in 6.2 mi WNW 6.9 mph - N/A   Partly Cloudy
3:20 AM 30.2 °F 21.9 °F 23.0 °F 75% 29.98 in 6.2 mi WNW 9.2 mph - N/A   Mostly Cloudy
3:50 AM 30.2 °F 21.3 °F 21.2 °F 69% 30.01 in 6.2 mi WNW 10.4 mph - N/A   Mostly Cloudy
4:00 AM 31 °F - 22 °F 58% 30.03 in 22 mi WNW 10.4 mph - -   Scattered Clouds
4:20 AM 30.2 °F 21.9 °F 23.0 °F 75% 30.04 in - WNW 9.2 mph - N/A   Clear
4:50 AM 30.2 °F 22.6 °F 23.0 °F 75% 30.04 in - WNW 8.1 mph - N/A   Clear
5:20 AM 24.8 °F 16.1 °F 21.2 °F 86% 30.06 in - WSW 8.1 mph - N/A   Clear
5:50 AM 28.4 °F 21.2 °F 21.2 °F 74% 30.06 in - West 6.9 mph - N/A   Clear
6:20 AM 26.6 °F 18.2 °F 23.0 °F 86% 30.06 in - West 8.1 mph - N/A   Clear
6:50 AM 26.6 °F 20.0 °F 23.0 °F 86% 30.09 in - West 5.8 mph - N/A   Clear
7:00 AM 29 °F - 24 °F 73% 30.11 in 25 mi West 6.9 mph - -   Clear
7:20 AM 28.4 °F 20.4 °F 24.8 °F 86% 30.09 in - West 8.1 mph - N/A   Clear
7:50 AM 26.6 °F 19.1 °F 23.0 °F 86% 30.12 in - West 6.9 mph - N/A   Clear
8:20 AM 24.8 °F 16.1 °F 23.0 °F 93% 30.12 in - West 8.1 mph - N/A   Clear
8:50 AM 26.6 °F 19.1 °F 23.0 °F 86% 30.15 in - West 6.9 mph - N/A   Clear
9:20 AM 26.6 °F 22.6 °F 23.0 °F 86% 30.15 in - WSW 3.5 mph - N/A   Clear
9:50 AM 28.4 °F 21.2 °F 24.8 °F 86% 30.18 in - West 6.9 mph - N/A   Clear
10:00 AM 30 °F - 26 °F 79% 30.19 in 19 mi West 6.9 mph - -   Clear
10:20 AM 30.2 °F 24.3 °F 26.6 °F 86% 30.18 in - WSW 5.8 mph - N/A   Clear
10:50 AM 32.0 °F 24.8 °F 28.4 °F 87% 30.18 in - WSW 8.1 mph - N/A   Clear
11:20 AM 32.0 °F 24.8 °F 28.4 °F 87% 30.21 in - WSW 8.1 mph - N/A   Clear
11:50 AM 33.8 °F 25.3 °F 28.4 °F 81% 30.21 in - WSW 11.5 mph - N/A   Clear
12:20 PM 33.8 °F 24.8 °F 30.2 °F 87% 30.21 in - WSW 12.7 mph - N/A   Clear
12:50 PM 33.8 °F 26.4 °F 30.2 °F 87% 30.21 in - WSW 9.2 mph - N/A   Clear
1:00 PM 34 °F - 29 °F 77% 30.23 in 19 mi WSW 10.4 mph - -   Clear
1:20 PM 33.8 °F 27.0 °F 28.4 °F 81% 30.24 in - WSW 8.1 mph - N/A   Clear
1:50 PM 33.8 °F 27.0 °F 28.4 °F 81% 30.24 in - WSW 8.1 mph - N/A   Clear
2:20 PM 32.0 °F 24.8 °F 28.4 °F 87% 30.24 in - SW 8.1 mph - N/A   Clear
2:50 PM 32.0 °F 26.4 °F 26.6 °F 80% 30.24 in - SSW 5.8 mph - N/A   Clear
3:20 PM 30.2 °F 23.4 °F 26.6 °F 86% 30.24 in - SW 6.9 mph - N/A   Clear
3:50 PM 30.2 °F 24.3 °F 28.4 °F 93% 30.24 in - SSW 5.8 mph - N/A   Clear
4:00 PM 29 °F - 27 °F 89% 30.25 in 16 mi SW 5.8 mph - -   Clear
4:20 PM 30.2 °F 24.3 °F 28.4 °F 93% 30.24 in - SSW 5.8 mph - N/A   Clear
4:50 PM 32.0 °F 25.6 °F 28.4 °F 87% 30.24 in - SSW 6.9 mph - N/A   Clear
5:20 PM 32.0 °F 24.2 °F 28.4 °F 87% 30.24 in - SSW 9.2 mph - N/A   Clear
5:50 PM 32.0 °F 26.4 °F 28.4 °F 87% 30.24 in - South 5.8 mph - N/A   Clear
6:20 PM 33.8 °F 26.4 °F 26.6 °F 75% 30.24 in - South 9.2 mph - N/A   Clear
6:50 PM 33.8 °F 23.9 °F 26.6 °F 75% 30.21 in - South 15.0 mph - N/A   Clear
7:00 PM 34 °F - 27 °F 66% 30.22 in 16 mi South 13.8 mph - -   Mostly Cloudy
7:20 PM 33.8 °F 24.3 °F 26.6 °F 75% 30.18 in - South 13.8 mph - N/A   Clear
7:50 PM 33.8 °F 23.9 °F 26.6 °F 75% 30.18 in - South 15.0 mph - N/A   Clear
8:20 PM 33.8 °F 23.5 °F 28.4 °F 81% 30.18 in - South 16.1 mph - N/A   Clear
8:50 PM 33.8 °F 23.5 °F 24.8 °F 70% 30.15 in - South 16.1 mph - N/A   Clear
9:20 PM 33.8 °F 22.8 °F 26.6 °F 75% 30.15 in - South 18.4 mph - N/A   Clear
9:50 PM 33.8 °F 22.5 °F 26.6 °F 75% 30.15 in - South 19.6 mph - N/A   Clear
10:00 PM 35 °F - 25 °F 56% 30.15 in 16 mi South 18.4 mph - -   Overcast
10:20 PM 35.6 °F 24.5 °F 26.6 °F 70% 30.12 in - South 20.7 mph - N/A   Clear
10:51 PM 33.8 °F 22.8 °F 28.4 °F 81% 30.12 in 6.2 mi South 18.4 mph - N/A   Mostly Cloudy
11:20 PM 33.8 °F 22.5 °F 30.2 °F 87% 30.09 in 6.2 mi South 19.6 mph - N/A Rain Light Rain
11:50 PM 35.6 °F 24.8 °F 32.0 °F 87% 30.09 in 6.2 mi South 19.6 mph - N/A Rain , Snow Light Rain